Regional Weather Roundup
Issued by NWS

Current Version | Previous Version | Text Only | Print | Product List | Glossary On
Versions: 1 2 3 4 5 6 7 8 9 10 11 12 13 14 15 16 17 18 19 20 21 22 23 24 25 26 27 28 29 30 31 32 33 34 35 36 37 38 39 40 41 42 43 44 45 46 47 48 49 50
000
ASUS44 KJAN 241610
RWRMS

MISSISSIPPI HOURLY WEATHER ROUNDUP
NATIONAL WEATHER SERVICE JACKSON MS
1100 AM CDT SUN MAY 24 2015

NOTE: "FAIR: INDICATES FEW OR NO CLOUDS BELOW 12,000 FEET WITH NO
SIGNIFICANT WEATHER AND/OR OBSTRUCTIONS TO VISIBILITY.

MSZ001>002-007>008-010>013-018>021-025>028-034>036-241700-
NORTHWEST MISSISSIPPI

CITY           SKY/WX    TMP DP  RH WIND       PRES   REMARKS
CLARKSDALE     CLOUDY    81  72  74 CALM      30.08F
CLEVELAND      PTSUNNY   80  74  79 S18       30.07S
GREENWOOD      CLOUDY    80  69  69 S14       30.11S
GREENVILLE     PTSUNNY   81  71  71 S21G26    30.05F
OLIVE BRANCH   PTSUNNY   79  70  73 SE17G28   30.10F
OXFORD         PTSUNNY   77  64  65 S12G20    30.15S
TUNICA         PTSUNNY   79  68  69 SE17G24   30.09S
$$

MSZ003>006-009-014>017-022>024-029>033-037>039-241700-
NORTHEAST MISSISSIPPI

CITY           SKY/WX    TMP DP  RH WIND       PRES   REMARKS
COLUMBUS AFB   MOSUNNY   85  68  57 SE13G23   30.17F
CORINTH        FAIR      81  64  57 S13       30.15F
GOLDN TRIANGLE MOSUNNY   81  66  61 SE14G23   30.16F
STARKVILLE     FAIR      79  68  69 SE15      30.17S
TUPELO         MOSUNNY   80  64  58 S15G22    30.16F
$$

MSZ040-058-241700-
CENTRAL MISSISSIPPI

CITY           SKY/WX    TMP DP  RH WIND       PRES   REMARKS
JACKSON INTL   PTSUNNY   81  71  71 SE17      30.11F
JACKSON HAWKNS PTSUNNY   82  70  66 SE13G25   30.10F
MERIDIAN KEY   PTSUNNY   83  70  64 S17G24    30.16S
MERIDIAN NAS   PTSUNNY   83  69  62 SE14      30.17F
RAYMOND        FAIR      84  79  84 SE12G23   30.08F HX  96
VICKSBURG      CLOUDY    84  71  65 S14       30.06F
$$

MSZ059>079-241700-
SOUTH MISSISSIPPI

CITY           SKY/WX    TMP DP  RH WIND       PRES   REMARKS
BROOKHAVEN     FAIR      82  73  74 SE13      30.11F
HATTIESBURG    MOSUNNY   86  71  60 SE18      30.13F HX  91
MCCOMB         PTSUNNY   83  73  72 S17G24    30.09F
NATCHEZ        PTSUNNY   82  72  69 S12G20    30.07S
PINE BELT      PTSUNNY   82  70  65 S16       30.14F
$$

MSZ080>082-241700-
COASTAL MISSISSIPPI

CITY           SKY/WX    TMP DP  RH WIND       PRES   REMARKS
BAY ST LOUIS   PTSUNNY   79  72  78 MISG      30.12F
BILOXI         MOSUNNY   85  76  73 S15       30.13F HX  94
PASCAGOULA     MOSUNNY   84  74  71 SE18G25   30.15S HX  91
GULFPORT       MOSUNNY   85  75  72 SE22      30.13S HX  93
$$


USA.gov is the U.S. government's official web portal to all federal, state and local government web resources and services.